Location: Newark
(35.2672°N, 80.7344°W)
Time: 21:06:43
(UTC+00:00)

SR - Pass Details

Date: 27 January 2020
Orbit: 575 x 880 km, 66.7° (Epoch: 23 February)

Event Time Altitude Azimuth Distance (km) Brightness Sun altitude
Rises 11:07:40 0° 345° (NNW) 3,372 ? -16.1°
Reaches altitude 10° 11:10:46 10° 0° (N) 2,386 ? -15.5°
Maximum altitude 11:14:56 22° 50° (NE) 1,638 ? -14.7°
Drops below altitude 10° 11:18:51 10° 101° (E) 2,222 ? -13.9°
Sets 11:21:36 0° 116° (ESE) 3,080 ? -13.3°
